Location: Mauna Kea VIS
(19.7591°N, 155.4561°W)
Time: 21:50:32
(UTC-10:00)

Daily predictions for brighter satellites

Satellite Brightness Start Highest point End
(mag) Time Altitude Azimuth Time Altitude Azimuth Time Altitude Azimuth
COSMO-SKYMED 1 2.9 17:54:28 10° NNE 17:58:39 47° E 18:02:49 10° S
GPS 2-14 Rocket1 3.7 17:55:20 10° SW 17:59:13 39° SSE 18:03:01 10° E
Aurora 2 Rocket 3.2 17:52:54 10° WNW 17:59:23 61° N 18:03:51 10° E
SJ-7 4.4 17:56:02 10° SSE 18:00:14 81° ENE 18:04:23 10° N
COSMOS 2406 3.3 17:56:02 10° N 18:01:39 59° ENE 18:07:13 10° SSE
Delta 168 3.7 17:59:01 10° WSW 18:03:35 77° SSE 18:10:40 10° ENE
Cosmos 332 Rocket 4.2 18:00:40 10° NNW 18:05:31 69° WSW 18:10:21 10° S
USA 116 4.4 18:02:31 10° N 18:06:35 57° WNW 18:10:09 10° SSW
CSL-04 Debris 4.2 18:01:40 10° SSE 18:07:07 88° ENE 18:12:33 10° NNW
IUS-13 SRM-1 3.1 18:05:56 10° NW 18:07:07 15° N 18:08:36 10° NE
ALOS 3.7 18:04:43 10° ESE 18:07:29 16° ENE 18:10:15 10° NE
Cosmos 1703 Rocket 3.6 18:05:50 10° S 18:10:16 68° E 18:14:42 10° N
Tsikada Rocket 4.2 18:07:28 10° N 18:13:37 78° W 18:19:47 10° S
GPS 2-18 Rocket1 3.1 18:10:31 10° W 18:14:30 77° N 18:18:19 11° E
Cosmos 1763 Rocket 4.0 18:10:14 10° N 18:14:55 35° ENE 18:19:31 10° SE
Cosmos 1484 Rocket 3.2 18:11:34 10° S 18:15:18 66° W 18:19:06 10° NNW
Cosmos 2297 3.7 18:10:04 10° S 18:15:41 71° ESE 18:21:23 10° NNE
SMAP 3.3 18:12:39 10° S 18:17:16 75° WSW 18:21:54 10° NNW
Tiangong 1 1.0 18:15:50 10° SSW 18:18:19 45° SE 18:20:14 15° ENE
Cosmos 1503 Rocket 4.0 18:13:46 10° S 18:19:04 77° ESE 18:24:19 10° NNE
Cosmos 1633 3.8 18:16:33 10° NNE 18:19:23 21° E 18:22:13 10° SE
Cosmos 1441 Rocket 4.4 18:17:45 10° SSE 18:20:56 23° E 18:24:08 10° NE
Cosmos 1606 2.6 18:18:21 10° S 18:22:09 86° E 18:25:55 10° N
Cosmos 2278 Rocket 4.0 18:17:34 10° SW 18:22:32 32° WNW 18:27:34 10° N
Cosmos 1814 Rocket 4.2 18:19:20 10° N 18:24:33 53° ENE 18:29:44 10° SSE
OAO 2 Rocket 4.5 18:20:34 10° WNW 18:25:23 45° SW 18:30:18 10° SE
Ariane Rocket 3.9 18:20:55 10° S 18:25:53 55° WSW 18:30:52 10° NNW
Cosmos 1833 Rocket 4.3 18:27:02 10° NE 18:28:49 13° NE 18:28:49 13° NE
Okean 2 Rocket 4.4 18:27:24 10° NE 18:30:38 19° E 18:33:50 10° SE
Cosmos 1782 3.1 18:27:37 10° S 18:31:38 71° W 18:35:38 10° N
Cosmos 968 Rocket 4.1 18:27:38 10° SSE 18:32:11 33° E 18:36:05 13° NE
EO 1 Del DPAF 4.4 18:32:52 10° N 18:36:29 44° WNW 18:40:06 10° SSW
BREEZE-M DEB 4.1 18:34:46 10° NW 18:38:42 89° NE 18:41:29 10° SE
BREEZE-M DEB (TANK) 2.4 18:32:56 10° NW 18:39:49 86° NE 18:42:34 10° SE
Cosmos 1464 Rocket 3.9 18:33:52 10° S 18:39:59 84° E 18:46:06 10° N
Cosmos 540 Rocket 4.4 18:42:34 10° NNE 18:46:43 24° ENE 18:46:43 24° ENE
Cosmos 1908 Rocket 3.7 18:43:10 10° N 18:47:27 73° W 18:51:46 10° S
Cosmos 841 Rocket 3.5 18:43:40 10° N 18:48:52 59° ENE 18:53:59 10° SSE
Meteor 2-6 Rocket 4.3 18:45:05 10° SSW 18:50:25 72° W 18:55:51 10° N
SPOT 3 Rocket 3.5 18:46:07 10° SSE 18:51:16 65° ENE 18:56:25 10° N
Cosmos 405 Rocket 2.7 18:47:50 10° S 18:51:43 85° W 18:55:32 10° N
MONITOR-E 4.2 18:50:17 10° S 18:53:18 74° WSW 18:56:19 10° NNW
Sich 1 Rocket 3.8 18:51:32 10° N 18:55:57 71° W 19:00:23 10° S
GENESIS II 4.0 18:56:37 10° NNW 19:00:29 76° ENE 19:04:20 10° SSE
SEDSat Delta rocket 3.7 18:57:47 10° SSW 19:01:27 32° SSE 19:02:03 30° SE
NOAA 12 4.0 18:56:45 10° SSE 19:02:03 73° ENE 19:07:20 10° N
ERS-2 3.4 18:59:01 10° S 19:02:30 41° W 19:06:00 10° NNW
OE (NEXTSAT) 4.5 19:00:12 10° NW 19:03:24 55° NNE 19:03:24 55° NNE
Cosmos 2082 Rocket 3.2 19:08:57 10° N 19:12:01 28° NNE 19:12:01 28° NNE
Meteor 1-27 Rocket 4.0 19:09:00 10° SSW 19:14:47 72° W 19:20:41 10° N
GPS 2-12 Rocket1 2.9 19:11:51 10° W 19:16:39 87° N 19:17:19 66° E
NOSS 3-1 (C) 4.4 19:20:13 10° S 19:23:13 25° SE 19:23:13 25° SE
BREEZE M DEB (TANK) 4.3 19:21:44 10° NW 19:26:20 31° WSW 19:27:24 23° SSW
Delta 7925 Rocket 4.2 19:23:26 10° WSW 19:29:37 66° SSE 19:31:24 50° E
GPS 2-14 Rocket1 4.0 19:36:06 10° W 19:38:46 39° W 19:38:46 39° W
Atlas 2A Centaur Rocket 3.5 19:33:18 10° W 19:43:37 39° NNW 19:43:37 39° NNW
ALOS 4.1 19:40:33 10° SSW 19:44:36 30° W 19:48:39 10° NW
USA 229 DEB 3.9 19:38:30 10° SW 19:45:08 66° WNW 19:47:25 42° N
USA 229 3.9 19:38:36 10° SW 19:45:14 67° WNW 19:47:28 43° N
Aurora 2 Rocket 4.0 19:48:10 10° W 19:51:21 34° WSW 19:51:21 34° WSW
Cosmos 1634 Rocket 3.9 19:48:07 10° S 19:53:48 77° SSW 19:53:48 77° SSW
Cosmos 2369 Rocket 2.9 19:54:38 10° SSW 19:58:35 47° SSW 19:58:35 47° SSW
Delta 168 4.5 19:55:14 10° W 20:01:07 61° NNW 20:01:07 61° NNW
Meteor 1-11 Rocket 4.4 19:59:00 10° NNW 20:04:36 53° W 20:10:04 10° S
Nadezhda 4 Rocket 4.5 20:02:34 10° NNW 20:08:29 55° W 20:14:25 10° SSW
Cosmos 1833 Rocket 4.4 20:08:23 10° NNW 20:10:43 25° NW 20:10:43 25° NW
Ariane H10+ 4.3 20:21:07 10° WSW 20:29:42 23° SSW 20:29:42 23° SSW
